Starlink 4436

operational
NORAD ID: 53479 Int'l Des: 2022-099 Owner: SPXS Country: US Constellation: starlink
LEOCIRCULARRETROGRADESSO

About Starlink 4436

Description loading...

Live Position

Loading 3D Globe...

Upcoming Passes

Altitude History

Altitude vs Time

uPlot chart will show altitude changes over time

Two-Line Element Set

1 53479U 22099Q 25259.27620126 .00000265 00000-0 25146-4 0 9994
2 53479 97.6032 19.4632 0002169 92.0892 268.0581 15.01261174169813
Epoch: Sep 16, 2025 • Age: 6 hours

Current Status

Altitude 585.3 km
Velocity 7.57 km/s
Sub-Earth Point -54.16°S, 6.36°E
Launch Date Aug 12, 2022
Age 3 years
Type internet

Technical Details

Classification Payload
Mass 300.00 kg
Dry Mass 275.00 kg
Total Mass 300.00 kg
Length 0.20 m
Diameter 2.80 m
Span 9.00 m
Shape Box + pan
Manufacturer SPXS
Bus Type Starlink
Phase Status In Orbit
Owner/State SPXS/US

Large Constellations

Loading constellations...